Simultaneous Nadir Overpasses (SNOs) Predictions

Prediction of SNOs between LANDSAT-8 and METOP-B Satellite Orbit:

Table of predicted SNOs for the next 14.0 days since TLE Epoch: 1/7/2014
Index Date (LANDSAT-8) Time (LANDSAT-8) Lat,Lon (LANDSAT-8) SZA (LANDSAT-8 ) Date (METOP-B) Time (METOP-B) Lat,Lon (METOP-B) SZA (METOP-B ) Distance(km) Time Diff (sec)
1 01/09/2014 03:19:22 -81.07, -10.86 75.12 01/09/2014 03:18:12 -81.07, -10.80 75.15 0.95 70
2 01/09/2014 04:08:47 81.09, 157.17 104.93 01/09/2014 04:08:51 81.09, 157.07 104.92 1.79 4
3 01/11/2014 22:53:33 -81.07, 55.57 75.58 01/11/2014 22:52:33 -81.07, 55.71 75.58 2.36 60
4 01/11/2014 23:42:58 81.09,-136.42 104.48 01/11/2014 23:43:12 81.09,-136.40 104.49 0.39 14
5 01/14/2014 18:27:45 -81.05, 121.84 76.10 01/14/2014 18:26:56 -81.06, 121.75 76.13 1.58 49
6
